contact:dominique.lefevre@mio.osupytheas.fr, maurice.libes@osupytheas.fr, didier.mallarino@osupytheas.fr
Project:EMSO http://www.emso-fr.org/EMSO-France
Depth: 2436.0 m
Title:EMSO Ligure Ouest : Data MII capteur MICROCAT
DateTime_Computer,Latitude,Longitude,Temperature,Conductivity,Pressure,DateTime_Instrument
DateTime_Computer,Latitude,Longitude,degC,S m-1,dbar,DateTime_Instrument
2019-11-11T00:01:26Z,42.805,6.029,13.2963,4.59958,2469.9,2019-11-11T02:01:54Z
2019-11-11T00:04:29Z,42.805,6.029,13.2960,4.59958,2469.923,2019-11-11T02:04:57Z
2019-11-11T00:07:33Z,42.805,6.029,13.2959,4.59958,2469.89,2019-11-11T02:08:00Z
2019-11-11T00:10:36Z,42.805,6.029,13.2957,4.59958,2469.9,2019-11-11T02:11:03Z
2019-11-11T00:13:39Z,42.805,6.029,13.2960,4.59958,2469.89,2019-11-11T02:14:07Z
2019-11-11T00:16:42Z,42.805,6.029,13.2961,4.59958,2469.9,2019-11-11T02:17:10Z
2019-11-11T00:19:46Z,42.805,6.029,13.2962,4.59958,2469.923,2019-11-11T02:20:13Z
2019-11-11T00:22:49Z,42.805,6.029,13.2958,4.59958,2469.9,2019-11-11T02:23:16Z
2019-11-11T00:25:52Z,42.805,6.029,13.2961,4.59958,2469.9,2019-11-11T02:26:20Z
2019-11-11T00:28:55Z,42.805,6.029,13.2964,4.59957,2469.9,2019-11-11T02:29:23Z
2019-11-11T00:31:59Z,42.805,6.029,13.2958,4.59958,2469.9,2019-11-11T02:32:26Z
2019-11-11T00:35:02Z,42.805,6.029,13.2960,4.59959,2469.923,2019-11-11T02:35:29Z
2019-11-11T00:38:05Z,42.805,6.029,13.2961,4.59958,2469.876,2019-11-11T02:38:32Z
2019-11-11T00:41:08Z,42.805,6.029,13.2964,4.59958,2469.914,2019-11-11T02:41:36Z
2019-11-11T00:44:11Z,42.805,6.029,13.2958,4.59960,2469.9,2019-11-11T02:44:39Z
2019-11-11T00:47:15Z,42.805,6.029,13.2961,4.59958,2469.89,2019-11-11T02:47:42Z
2019-11-11T00:50:18Z,42.805,6.029,13.2959,4.59958,2469.876,2019-11-11T02:50:45Z
2019-11-11T00:53:21Z,42.805,6.029,13.2961,4.59958,2469.914,2019-11-11T02:53:48Z
2019-11-11T00:56:24Z,42.805,6.029,13.2962,4.59958,2469.876,2019-11-11T02:56:52Z
2019-11-11T00:59:28Z,42.805,6.029,13.2964,4.59958,2469.876,2019-11-11T02:59:55Z
2019-11-11T01:02:31Z,42.805,6.029,13.2961,4.59958,2469.914,2019-11-11T03:02:58Z
2019-11-11T01:05:34Z,42.805,6.029,13.2958,4.59960,2469.914,2019-11-11T03:06:01Z
2019-11-11T01:08:37Z,42.805,6.029,13.2959,4.59960,2469.914,2019-11-11T03:09:05Z
2019-11-11T01:11:40Z,42.805,6.029,13.2962,4.59958,2469.9,2019-11-11T03:12:08Z
2019-11-11T01:14:44Z,42.805,6.029,13.2959,4.59958,2469.876,2019-11-11T03:15:11Z
2019-11-11T01:17:47Z,42.805,6.029,13.2960,4.59959,2469.853,2019-11-11T03:18:14Z
2019-11-11T01:20:50Z,42.805,6.029,13.2960,4.59961,2469.9,2019-11-11T03:21:17Z
2019-11-11T01:23:53Z,42.805,6.029,13.2961,4.59961,2469.9,2019-11-11T03:24:21Z
2019-11-11T01:26:56Z,42.805,6.029,13.2964,4.59958,2469.914,2019-11-11T03:27:24Z
2019-11-11T01:30:00Z,42.805,6.029,13.2961,4.59959,2469.937,2019-11-11T03:30:27Z
2019-11-11T01:33:03Z,42.805,6.029,13.2962,4.59961,2469.876,2019-11-11T03:33:30Z
2019-11-11T01:36:06Z,42.805,6.029,13.2961,4.59959,2469.914,2019-11-11T03:36:34Z
2019-11-11T01:39:10Z,42.805,6.029,13.2964,4.59959,2469.914,2019-11-11T03:39:37Z
2019-11-11T01:42:13Z,42.805,6.029,13.2961,4.59960,2469.9,2019-11-11T03:42:40Z
2019-11-11T01:45:16Z,42.805,6.029,13.2963,4.59959,2469.914,2019-11-11T03:45:44Z
2019-11-11T01:48:19Z,42.805,6.029,13.2961,4.59961,2469.909,2019-11-11T03:48:47Z
2019-11-11T01:51:23Z,42.805,6.029,13.2960,4.59959,2469.923,2019-11-11T03:51:50Z
2019-11-11T01:54:26Z,42.805,6.029,13.2961,4.59960,2469.9,2019-11-11T03:54:53Z
2019-11-11T01:57:29Z,42.805,6.029,13.2959,4.59959,2469.923,2019-11-11T03:57:56Z
2019-11-11T02:00:32Z,42.805,6.029,13.2963,4.59960,2469.9,2019-11-11T04:01:00Z
2019-11-11T02:03:36Z,42.805,6.029,13.2961,4.59958,2469.9,2019-11-11T04:04:03Z
2019-11-11T02:06:39Z,42.805,6.029,13.2964,4.59960,2469.96,2019-11-11T04:07:06Z
2019-11-11T02:09:42Z,42.805,6.029,13.2961,4.59961,2469.914,2019-11-11T04:10:09Z
2019-11-11T02:12:45Z,42.805,6.029,13.2959,4.59962,2469.947,2019-11-11T04:13:12Z
2019-11-11T02:15:48Z,42.805,6.029,13.2961,4.59961,2469.923,2019-11-11T04:16:16Z
2019-11-11T02:18:52Z,42.805,6.029,13.2961,4.59959,2469.9,2019-11-11T04:19:19Z
2019-11-11T02:21:55Z,42.805,6.029,13.2962,4.59961,2469.914,2019-11-11T04:22:22Z
2019-11-11T02:24:58Z,42.805,6.029,13.2960,4.59962,2469.923,2019-11-11T04:25:26Z
2019-11-11T02:28:01Z,42.805,6.029,13.2961,4.59961,2469.923,2019-11-11T04:28:29Z
2019-11-11T02:31:05Z,42.805,6.029,13.2960,4.59959,2469.914,2019-11-11T04:31:32Z
2019-11-11T02:34:08Z,42.805,6.029,13.2960,4.59961,2469.923,2019-11-11T04:34:35Z
2019-11-11T02:37:11Z,42.805,6.029,13.2963,4.59961,2469.96,2019-11-11T04:37:38Z
2019-11-11T02:40:14Z,42.805,6.029,13.2961,4.59960,2469.923,2019-11-11T04:40:42Z
2019-11-11T02:43:17Z,42.805,6.029,13.2958,4.59961,2469.923,2019-11-11T04:43:45Z
2019-11-11T02:46:21Z,42.805,6.029,13.2964,4.59959,2469.97,2019-11-11T04:46:48Z
2019-11-11T02:49:24Z,42.805,6.029,13.2961,4.59961,2469.984,2019-11-11T04:49:51Z
2019-11-11T02:52:27Z,42.805,6.029,13.2964,4.59960,2469.96,2019-11-11T04:52:55Z
2019-11-11T02:55:30Z,42.805,6.029,13.2960,4.59961,2469.947,2019-11-11T04:55:58Z
2019-11-11T02:58:34Z,42.805,6.029,13.2967,4.59961,2469.97,2019-11-11T04:59:01Z
2019-11-11T03:01:37Z,42.805,6.029,13.2964,4.59961,2469.96,2019-11-11T05:02:04Z
2019-11-11T03:04:40Z,42.805,6.029,13.2961,4.59963,2469.937,2019-11-11T05:05:07Z
2019-11-11T03:07:43Z,42.805,6.029,13.2963,4.59960,2469.937,2019-11-11T05:08:11Z
2019-11-11T03:10:46Z,42.805,6.029,13.2967,4.59961,2469.97,2019-11-11T05:11:14Z
2019-11-11T03:13:50Z,42.805,6.029,13.2962,4.59963,2469.937,2019-11-11T05:14:17Z
2019-11-11T03:16:53Z,42.805,6.029,13.2961,4.59961,2469.97,2019-11-11T05:17:20Z
2019-11-11T03:19:56Z,42.805,6.029,13.2958,4.59964,2469.97,2019-11-11T05:20:24Z
2019-11-11T03:22:59Z,42.805,6.029,13.2961,4.59963,2469.923,2019-11-11T05:23:27Z
2019-11-11T03:26:03Z,42.805,6.029,13.2961,4.59961,2469.97,2019-11-11T05:26:30Z
2019-11-11T03:29:06Z,42.805,6.029,13.2965,4.59960,2469.97,2019-11-11T05:29:33Z
2019-11-11T03:32:09Z,42.805,6.029,13.2961,4.59961,2469.947,2019-11-11T05:32:36Z
2019-11-11T03:35:12Z,42.805,6.029,13.2963,4.59963,2469.97,2019-11-11T05:35:40Z
2019-11-11T03:38:16Z,42.805,6.029,13.2959,4.59966,2470.04,2019-11-11T05:38:43Z
2019-11-11T03:41:19Z,42.805,6.029,13.2960,4.59960,2469.993,2019-11-11T05:41:46Z
2019-11-11T03:44:22Z,42.805,6.029,13.2962,4.59961,2469.984,2019-11-11T05:44:49Z
2019-11-11T03:47:25Z,42.805,6.029,13.2962,4.59961,2470.053,2019-11-11T05:47:53Z
2019-11-11T03:50:28Z,42.805,6.029,13.2965,4.59961,2470.007,2019-11-11T05:50:56Z
2019-11-11T03:53:32Z,42.805,6.029,13.2961,4.59963,2470.017,2019-11-11T05:53:59Z
2019-11-11T03:56:35Z,42.805,6.029,13.2964,4.59961,2469.993,2019-11-11T05:57:02Z
2019-11-11T03:59:38Z,42.805,6.029,13.2964,4.59961,2469.993,2019-11-11T06:00:06Z
2019-11-11T04:02:41Z,42.805,6.029,13.2963,4.59961,2470.017,2019-11-11T06:03:09Z
2019-11-11T04:05:45Z,42.805,6.029,13.2959,4.59964,2469.993,2019-11-11T06:06:12Z
2019-11-11T04:08:48Z,42.805,6.029,13.2961,4.59961,2469.984,2019-11-11T06:09:15Z
2019-11-11T04:11:51Z,42.805,6.029,13.2963,4.59962,2469.993,2019-11-11T06:12:18Z
2019-11-11T04:14:54Z,42.805,6.029,13.2963,4.59961,2469.993,2019-11-11T06:15:22Z
2019-11-11T04:17:57Z,42.805,6.029,13.2963,4.59961,2470.017,2019-11-11T06:18:25Z
2019-11-11T04:21:01Z,42.805,6.029,13.2961,4.59962,2470.03,2019-11-11T06:21:28Z
2019-11-11T04:24:04Z,42.805,6.029,13.2961,4.59961,2470.017,2019-11-11T06:24:31Z
2019-11-11T04:27:07Z,42.805,6.029,13.2961,4.59962,2470.03,2019-11-11T06:27:35Z
2019-11-11T04:30:10Z,42.805,6.029,13.2964,4.59964,2470.007,2019-11-11T06:30:38Z
2019-11-11T04:33:14Z,42.805,6.029,13.2966,4.59961,2470.017,2019-11-11T06:33:41Z
2019-11-11T04:36:17Z,42.805,6.029,13.2962,4.59962,2470.007,2019-11-11T06:36:44Z
2019-11-11T04:39:20Z,42.805,6.029,13.2965,4.59962,2470.03,2019-11-11T06:39:47Z
2019-11-11T04:42:23Z,42.805,6.029,13.2964,4.59964,2470.04,2019-11-11T06:42:51Z
2019-11-11T04:45:26Z,42.805,6.029,13.2968,4.59962,2470.017,2019-11-11T06:45:54Z
2019-11-11T04:48:30Z,42.805,6.029,13.2965,4.59963,2470.04,2019-11-11T06:48:57Z
2019-11-11T04:51:33Z,42.805,6.029,13.2964,4.59963,2470.053,2019-11-11T06:52:00Z
2019-11-11T04:54:36Z,42.805,6.029,13.2961,4.59967,2470.03,2019-11-11T06:55:04Z
2019-11-11T04:57:40Z,42.805,6.029,13.2963,4.59962,2470.017,2019-11-11T06:58:07Z
2019-11-11T05:00:43Z,42.805,6.029,13.2966,4.59963,2470.077,2019-11-11T07:01:10Z
2019-11-11T05:03:46Z,42.805,6.029,13.2966,4.59963,2470.04,2019-11-11T07:04:13Z
2019-11-11T05:06:49Z,42.805,6.029,13.2961,4.59962,2470.077,2019-11-11T07:07:17Z
2019-11-11T05:09:52Z,42.805,6.029,13.2964,4.59962,2470.017,2019-11-11T07:10:20Z
2019-11-11T05:12:56Z,42.805,6.029,13.2966,4.59961,2470.04,2019-11-11T07:13:23Z
2019-11-11T05:15:59Z,42.805,6.029,13.2962,4.59962,2470.04,2019-11-11T07:16:26Z
2019-11-11T05:19:02Z,42.805,6.029,13.2961,4.59965,2470.017,2019-11-11T07:19:30Z
2019-11-11T05:22:05Z,42.805,6.029,13.2964,4.59966,2470.04,2019-11-11T07:22:33Z
2019-11-11T05:25:09Z,42.805,6.029,13.2973,4.59963,2470.04,2019-11-11T07:25:36Z
2019-11-11T05:28:12Z,42.805,6.029,13.2964,4.59966,2470.04,2019-11-11T07:28:39Z
2019-11-11T05:31:15Z,42.805,6.029,13.2966,4.59974,2470.04,2019-11-11T07:31:42Z
2019-11-11T05:34:18Z,42.805,6.029,13.2965,4.59965,2470.053,2019-11-11T07:34:46Z
2019-11-11T05:37:21Z,42.805,6.029,13.2957,4.59964,2470.063,2019-11-11T07:37:49Z
2019-11-11T05:40:25Z,42.805,6.029,13.2970,4.59966,2470.04,2019-11-11T07:40:52Z
2019-11-11T05:43:28Z,42.805,6.029,13.2963,4.59971,2470.053,2019-11-11T07:43:56Z
2019-11-11T05:46:31Z,42.805,6.029,13.2963,4.59964,2470.04,2019-11-11T07:46:59Z
2019-11-11T05:49:35Z,42.805,6.029,13.2963,4.59965,2470.077,2019-11-11T07:50:02Z
2019-11-11T05:52:38Z,42.805,6.029,13.2964,4.59965,2470.04,2019-11-11T07:53:05Z
2019-11-11T05:55:41Z,42.805,6.029,13.2967,4.59966,2470.04,2019-11-11T07:56:08Z
2019-11-11T05:58:44Z,42.805,6.029,13.2967,4.59970,2470.04,2019-11-11T07:59:12Z
2019-11-11T06:01:47Z,42.805,6.029,13.2964,4.59968,2470.053,2019-11-11T08:02:15Z
2019-11-11T06:04:51Z,42.805,6.029,13.2963,4.59966,2470.077,2019-11-11T08:05:18Z
2019-11-11T06:07:54Z,42.805,6.029,13.2961,4.59965,2470.04,2019-11-11T08:08:21Z
2019-11-11T06:10:57Z,42.805,6.029,13.2964,4.59966,2470.04,2019-11-11T08:11:25Z
2019-11-11T06:14:00Z,42.805,6.029,13.2961,4.59964,2470.077,2019-11-11T08:14:28Z
2019-11-11T06:17:04Z,42.805,6.029,13.2962,4.59968,2470.04,2019-11-11T08:17:31Z
2019-11-11T06:20:07Z,42.805,6.029,13.2959,4.59964,2470.087,2019-11-11T08:20:34Z
2019-11-11T06:23:10Z,42.805,6.029,13.2961,4.59965,2470.017,2019-11-11T08:23:38Z
2019-11-11T06:26:13Z,42.805,6.029,13.2963,4.59976,2470.063,2019-11-11T08:26:41Z
2019-11-11T06:29:17Z,42.805,6.029,13.2962,4.59971,2470.063,2019-11-11T08:29:44Z
2019-11-11T06:32:20Z,42.805,6.029,13.2961,4.59964,2470.04,2019-11-11T08:32:47Z
2019-11-11T06:35:23Z,42.805,6.029,13.2962,4.59964,2470.04,2019-11-11T08:35:51Z
2019-11-11T06:38:26Z,42.805,6.029,13.2960,4.59964,2470.053,2019-11-11T08:38:54Z
2019-11-11T06:41:30Z,42.805,6.029,13.2965,4.59965,2470.04,2019-11-11T08:41:57Z
2019-11-11T06:44:33Z,42.805,6.029,13.2965,4.59965,2470.063,2019-11-11T08:45:00Z
2019-11-11T06:47:36Z,42.805,6.029,13.2962,4.59963,2470.03,2019-11-11T08:48:03Z
2019-11-11T06:50:39Z,42.805,6.029,13.2965,4.59967,2470.063,2019-11-11T08:51:07Z
2019-11-11T06:53:42Z,42.805,6.029,13.2960,4.59971,2470.063,2019-11-11T08:54:10Z
2019-11-11T06:56:46Z,42.805,6.029,13.2962,4.59974,2470.077,2019-11-11T08:57:13Z
2019-11-11T06:59:49Z,42.805,6.029,13.2966,4.59967,2470.063,2019-11-11T09:00:16Z
2019-11-11T07:02:52Z,42.805,6.029,13.2961,4.59973,2470.077,2019-11-11T09:03:20Z
2019-11-11T07:05:55Z,42.805,6.029,13.2962,4.59968,2470.063,2019-11-11T09:06:23Z
2019-11-11T07:08:59Z,42.805,6.029,13.2964,4.59968,2470.087,2019-11-11T09:09:26Z
2019-11-11T07:12:02Z,42.805,6.029,13.2962,4.59967,2470.087,2019-11-11T09:12:29Z
2019-11-11T07:15:05Z,42.805,6.029,13.2965,4.59973,2470.063,2019-11-11T09:15:32Z
2019-11-11T07:18:08Z,42.805,6.029,13.2964,4.59967,2470.063,2019-11-11T09:18:36Z
2019-11-11T07:21:12Z,42.805,6.029,13.2966,4.59969,2470.063,2019-11-11T09:21:39Z
2019-11-11T07:24:15Z,42.805,6.029,13.2962,4.59967,2470.03,2019-11-11T09:24:42Z
2019-11-11T07:27:18Z,42.805,6.029,13.2961,4.59968,2470.1,2019-11-11T09:27:46Z
2019-11-11T07:30:21Z,42.805,6.029,13.2964,4.59968,2470.063,2019-11-11T09:30:49Z
2019-11-11T07:33:25Z,42.805,6.029,13.2962,4.59967,2470.063,2019-11-11T09:33:52Z
2019-11-11T07:36:28Z,42.805,6.029,13.2963,4.59968,2470.017,2019-11-11T09:36:55Z
2019-11-11T07:39:31Z,42.805,6.029,13.2967,4.59968,2470.053,2019-11-11T09:39:59Z
2019-11-11T07:42:34Z,42.805,6.029,13.2964,4.59966,2470.077,2019-11-11T09:43:02Z
2019-11-11T07:45:38Z,42.805,6.029,13.2962,4.59966,2470.077,2019-11-11T09:46:05Z
2019-11-11T07:48:41Z,42.805,6.029,13.2958,4.59966,2470.063,2019-11-11T09:49:08Z
2019-11-11T07:51:44Z,42.805,6.029,13.2964,4.59968,2470.077,2019-11-11T09:52:12Z
2019-11-11T07:54:47Z,42.805,6.029,13.2961,4.59967,2470.04,2019-11-11T09:55:15Z
2019-11-11T07:57:51Z,42.805,6.029,13.2963,4.59968,2470.04,2019-11-11T09:58:18Z
2019-11-11T08:00:54Z,42.805,6.029,13.2964,4.59966,2470.063,2019-11-11T10:01:21Z
2019-11-11T08:03:57Z,42.805,6.029,13.2960,4.59966,2470.017,2019-11-11T10:04:25Z
2019-11-11T08:07:00Z,42.805,6.029,13.2963,4.59966,2470.017,2019-11-11T10:07:28Z
2019-11-11T08:10:04Z,42.805,6.029,13.2960,4.59966,2470.04,2019-11-11T10:10:31Z
2019-11-11T08:13:07Z,42.805,6.029,13.2963,4.59967,2470.017,2019-11-11T10:13:34Z
2019-11-11T08:16:10Z,42.805,6.029,13.2964,4.59966,2470.063,2019-11-11T10:16:38Z
2019-11-11T08:19:13Z,42.805,6.029,13.2963,4.59967,2470.053,2019-11-11T10:19:41Z
2019-11-11T08:22:16Z,42.805,6.029,13.2963,4.59968,2470.053,2019-11-11T10:22:44Z
2019-11-11T08:25:20Z,42.805,6.029,13.2964,4.59968,2470.04,2019-11-11T10:25:47Z
2019-11-11T08:28:23Z,42.805,6.029,13.2962,4.59968,2470.087,2019-11-11T10:28:50Z
2019-11-11T08:31:26Z,42.805,6.029,13.2962,4.59966,2470.053,2019-11-11T10:31:54Z
2019-11-11T08:34:29Z,42.805,6.029,13.2964,4.59966,2470.04,2019-11-11T10:34:57Z
2019-11-11T08:37:33Z,42.805,6.029,13.2961,4.59966,2470.077,2019-11-11T10:38:00Z
2019-11-11T08:40:36Z,42.805,6.029,13.2965,4.59966,2469.993,2019-11-11T10:41:03Z
2019-11-11T08:43:39Z,42.805,6.029,13.2964,4.59966,2470.053,2019-11-11T10:44:06Z
2019-11-11T08:46:42Z,42.805,6.029,13.2961,4.59966,2470.017,2019-11-11T10:47:10Z
2019-11-11T08:49:46Z,42.805,6.029,13.2964,4.59968,2470.053,2019-11-11T10:50:13Z
2019-11-11T08:52:49Z,42.805,6.029,13.2964,4.59967,2470.03,2019-11-11T10:53:17Z
2019-11-11T08:55:52Z,42.805,6.029,13.2964,4.59967,2470.053,2019-11-11T10:56:20Z
2019-11-11T08:58:56Z,42.805,6.029,13.2964,4.59967,2470.003,2019-11-11T10:59:23Z
2019-11-11T09:01:59Z,42.805,6.029,13.2965,4.59965,2470.03,2019-11-11T11:02:26Z
2019-11-11T09:05:02Z,42.805,6.029,13.2964,4.59968,2470.053,2019-11-11T11:05:30Z
2019-11-11T09:08:05Z,42.805,6.029,13.2962,4.59968,2470.017,2019-11-11T11:08:33Z
2019-11-11T09:11:09Z,42.805,6.029,13.2964,4.59966,2469.993,2019-11-11T11:11:36Z
2019-11-11T09:14:12Z,42.805,6.029,13.2963,4.59966,2470.017,2019-11-11T11:14:39Z
2019-11-11T09:17:15Z,42.805,6.029,13.2964,4.59966,2470.053,2019-11-11T11:17:43Z
2019-11-11T09:20:18Z,42.805,6.029,13.2961,4.59967,2470.03,2019-11-11T11:20:46Z
2019-11-11T09:23:22Z,42.805,6.029,13.2966,4.59966,2470.007,2019-11-11T11:23:49Z
2019-11-11T09:26:25Z,42.805,6.029,13.2964,4.59966,2469.97,2019-11-11T11:26:53Z
2019-11-11T09:29:28Z,42.805,6.029,13.2965,4.59965,2470.007,2019-11-11T11:29:56Z
2019-11-11T09:32:31Z,42.805,6.029,13.2961,4.59964,2469.984,2019-11-11T11:32:59Z
2019-11-11T09:35:35Z,42.805,6.029,13.2964,4.59964,2469.984,2019-11-11T11:36:02Z
2019-11-11T09:38:38Z,42.805,6.029,13.2959,4.59965,2469.97,2019-11-11T11:39:05Z
2019-11-11T09:41:41Z,42.805,6.029,13.2963,4.59964,2469.96,2019-11-11T11:42:09Z
2019-11-11T09:44:44Z,42.805,6.029,13.2959,4.59964,2470.017,2019-11-11T11:45:12Z
2019-11-11T09:47:48Z,42.805,6.029,13.2961,4.59965,2469.979,2019-11-11T11:48:15Z
2019-11-11T09:50:51Z,42.805,6.029,13.2962,4.59964,2469.984,2019-11-11T11:51:18Z
2019-11-11T09:53:54Z,42.805,6.029,13.2965,4.59965,2469.984,2019-11-11T11:54:22Z
2019-11-11T09:56:57Z,42.805,6.029,13.2962,4.59964,2469.993,2019-11-11T11:57:25Z
2019-11-11T10:00:01Z,42.805,6.029,13.2961,4.59964,2470.007,2019-11-11T12:00:28Z
2019-11-11T10:03:04Z,42.805,6.029,13.2963,4.59966,2469.984,2019-11-11T12:03:31Z
2019-11-11T10:06:07Z,42.805,6.029,13.2966,4.59963,2469.956,2019-11-11T12:06:34Z
2019-11-11T10:09:10Z,42.805,6.029,13.2960,4.59964,2470.017,2019-11-11T12:09:38Z
2019-11-11T10:12:14Z,42.805,6.029,13.2959,4.59964,2469.984,2019-11-11T12:12:41Z
2019-11-11T10:15:17Z,42.805,6.029,13.2964,4.59964,2469.97,2019-11-11T12:15:44Z
2019-11-11T10:18:20Z,42.805,6.029,13.2963,4.59966,2469.947,2019-11-11T12:18:47Z
2019-11-11T10:21:23Z,42.805,6.029,13.2964,4.59966,2469.96,2019-11-11T12:21:51Z
2019-11-11T10:24:26Z,42.805,6.029,13.2964,4.59962,2469.97,2019-11-11T12:24:54Z
2019-11-11T10:27:30Z,42.805,6.029,13.2961,4.59964,2469.97,2019-11-11T12:27:57Z
2019-11-11T10:30:33Z,42.805,6.029,13.2961,4.59964,2469.984,2019-11-11T12:31:00Z
2019-11-11T10:33:36Z,42.805,6.029,13.2962,4.59964,2469.97,2019-11-11T12:34:04Z
2019-11-11T10:36:39Z,42.805,6.029,13.2961,4.59963,2469.947,2019-11-11T12:37:07Z
2019-11-11T10:39:43Z,42.805,6.029,13.2961,4.59964,2469.947,2019-11-11T12:40:10Z
2019-11-11T10:42:46Z,42.805,6.029,13.2960,4.59964,2469.937,2019-11-11T12:43:13Z
2019-11-11T10:45:49Z,42.805,6.029,13.2967,4.59963,2469.923,2019-11-11T12:46:17Z
2019-11-11T10:48:52Z,42.805,6.029,13.2963,4.59964,2469.9,2019-11-11T12:49:20Z
2019-11-11T10:51:56Z,42.805,6.029,13.2959,4.59964,2469.923,2019-11-11T12:52:23Z
2019-11-11T10:54:59Z,42.805,6.029,13.2964,4.59964,2469.96,2019-11-11T12:55:26Z
2019-11-11T10:58:02Z,42.805,6.029,13.2965,4.59964,2469.96,2019-11-11T12:58:30Z
2019-11-11T11:01:05Z,42.805,6.029,13.2961,4.59964,2469.937,2019-11-11T13:01:33Z
2019-11-11T11:04:09Z,42.805,6.029,13.2967,4.59963,2469.97,2019-11-11T13:04:36Z
2019-11-11T11:07:12Z,42.805,6.029,13.2967,4.59964,2469.923,2019-11-11T13:07:39Z
2019-11-11T11:10:15Z,42.805,6.029,13.2960,4.59963,2469.923,2019-11-11T13:10:43Z
2019-11-11T11:13:18Z,42.805,6.029,13.2959,4.59963,2469.914,2019-11-11T13:13:46Z
2019-11-11T11:16:22Z,42.805,6.029,13.2964,4.59964,2469.914,2019-11-11T13:16:49Z
2019-11-11T11:19:25Z,42.805,6.029,13.2965,4.59966,2469.9,2019-11-11T13:19:52Z
2019-11-11T11:22:28Z,42.805,6.029,13.2961,4.59964,2469.914,2019-11-11T13:22:56Z
2019-11-11T11:25:31Z,42.805,6.029,13.2967,4.59965,2469.923,2019-11-11T13:25:59Z
2019-11-11T11:28:35Z,42.805,6.029,13.2961,4.59964,2469.937,2019-11-11T13:29:02Z
2019-11-11T11:31:38Z,42.805,6.029,13.2962,4.59963,2469.923,2019-11-11T13:32:05Z
2019-11-11T11:34:41Z,42.805,6.029,13.2967,4.59963,2469.9,2019-11-11T13:35:08Z
2019-11-11T11:37:44Z,42.805,6.029,13.2963,4.59964,2469.923,2019-11-11T13:38:12Z
2019-11-11T11:40:48Z,42.805,6.029,13.2960,4.59963,2469.914,2019-11-11T13:41:15Z
2019-11-11T11:43:51Z,42.805,6.029,13.2964,4.59966,2469.9,2019-11-11T13:44:18Z
2019-11-11T11:46:54Z,42.805,6.029,13.2962,4.59964,2469.914,2019-11-11T13:47:21Z
2019-11-11T11:49:57Z,42.805,6.029,13.2964,4.59964,2469.9,2019-11-11T13:50:25Z
2019-11-11T11:53:00Z,42.805,6.029,13.2961,4.59963,2469.886,2019-11-11T13:53:28Z
2019-11-11T11:56:04Z,42.805,6.029,13.2963,4.59963,2469.923,2019-11-11T13:56:31Z
2019-11-11T11:59:07Z,42.805,6.029,13.2959,4.59963,2469.9,2019-11-11T13:59:34Z
2019-11-11T12:02:10Z,42.805,6.029,13.2963,4.59964,2469.923,2019-11-11T14:02:37Z
2019-11-11T12:05:13Z,42.805,6.029,13.2963,4.59964,2469.914,2019-11-11T14:05:41Z
2019-11-11T12:08:17Z,42.805,6.029,13.2959,4.59965,2469.937,2019-11-11T14:08:44Z
2019-11-11T12:11:20Z,42.805,6.029,13.2962,4.59964,2469.9,2019-11-11T14:11:47Z
2019-11-11T12:14:23Z,42.805,6.029,13.2966,4.59963,2469.937,2019-11-11T14:14:50Z
2019-11-11T12:17:26Z,42.805,6.029,13.2962,4.59963,2469.9,2019-11-11T14:17:54Z
2019-11-11T12:20:29Z,42.805,6.029,13.2965,4.59965,2469.9,2019-11-11T14:20:57Z
2019-11-11T12:23:33Z,42.805,6.029,13.2963,4.59964,2469.876,2019-11-11T14:24:00Z
2019-11-11T12:26:36Z,42.805,6.029,13.2964,4.59964,2469.89,2019-11-11T14:27:03Z
2019-11-11T12:29:39Z,42.805,6.029,13.2967,4.59962,2469.914,2019-11-11T14:30:07Z
2019-11-11T12:32:42Z,42.805,6.029,13.2964,4.59963,2469.853,2019-11-11T14:33:10Z
2019-11-11T12:35:46Z,42.805,6.029,13.2961,4.59963,2469.914,2019-11-11T14:36:13Z
2019-11-11T12:38:49Z,42.805,6.029,13.2961,4.59961,2469.914,2019-11-11T14:39:16Z
2019-11-11T12:41:52Z,42.805,6.029,13.2962,4.59963,2469.89,2019-11-11T14:42:20Z
2019-11-11T12:44:56Z,42.805,6.029,13.2964,4.59964,2469.9,2019-11-11T14:45:23Z
2019-11-11T12:47:59Z,42.805,6.029,13.2965,4.59962,2469.876,2019-11-11T14:48:26Z
2019-11-11T12:51:02Z,42.805,6.029,13.2963,4.59963,2469.9,2019-11-11T14:51:30Z
2019-11-11T12:54:05Z,42.805,6.029,13.2963,4.59962,2469.853,2019-11-11T14:54:33Z
2019-11-11T12:57:09Z,42.805,6.029,13.2962,4.59962,2469.886,2019-11-11T14:57:36Z
2019-11-11T13:00:12Z,42.805,6.029,13.2961,4.59964,2469.89,2019-11-11T15:00:39Z
2019-11-11T13:03:15Z,42.805,6.029,13.2960,4.59962,2469.876,2019-11-11T15:03:43Z
2019-11-11T13:06:18Z,42.805,6.029,13.2961,4.59963,2469.876,2019-11-11T15:06:46Z
2019-11-11T13:09:22Z,42.805,6.029,13.2961,4.59963,2469.9,2019-11-11T15:09:49Z
2019-11-11T13:12:25Z,42.805,6.029,13.2964,4.59962,2469.876,2019-11-11T15:12:52Z
2019-11-11T13:15:28Z,42.805,6.029,13.2963,4.59961,2469.876,2019-11-11T15:15:55Z
2019-11-11T13:18:31Z,42.805,6.029,13.2964,4.59963,2469.914,2019-11-11T15:18:59Z
2019-11-11T13:21:34Z,42.805,6.029,13.2964,4.59962,2469.914,2019-11-11T15:22:02Z
2019-11-11T13:24:38Z,42.805,6.029,13.2961,4.59964,2469.89,2019-11-11T15:25:05Z
2019-11-11T13:27:41Z,42.805,6.029,13.2963,4.59964,2469.9,2019-11-11T15:28:08Z
2019-11-11T13:30:44Z,42.805,6.029,13.2961,4.59963,2469.914,2019-11-11T15:31:12Z
2019-11-11T13:33:47Z,42.805,6.029,13.2963,4.59961,2469.89,2019-11-11T15:34:15Z
2019-11-11T13:36:51Z,42.805,6.029,13.2960,4.59964,2469.853,2019-11-11T15:37:18Z
2019-11-11T13:39:54Z,42.805,6.029,13.2964,4.59964,2469.914,2019-11-11T15:40:21Z
2019-11-11T13:42:57Z,42.805,6.029,13.2967,4.59962,2469.914,2019-11-11T15:43:25Z
2019-11-11T13:46:00Z,42.805,6.029,13.2961,4.59962,2469.9,2019-11-11T15:46:28Z
2019-11-11T13:49:04Z,42.805,6.029,13.2963,4.59961,2469.853,2019-11-11T15:49:31Z
2019-11-11T13:52:07Z,42.805,6.029,13.2960,4.59963,2469.9,2019-11-11T15:52:34Z
2019-11-11T13:55:10Z,42.805,6.029,13.2962,4.59961,2469.853,2019-11-11T15:55:38Z
2019-11-11T13:58:13Z,42.805,6.029,13.2961,4.59962,2469.9,2019-11-11T15:58:41Z
2019-11-11T14:01:16Z,42.805,6.029,13.2962,4.59962,2469.96,2019-11-11T16:01:44Z
2019-11-11T14:04:20Z,42.805,6.029,13.2964,4.59966,2469.9,2019-11-11T16:04:47Z
2019-11-11T14:07:23Z,42.805,6.029,13.2962,4.59964,2469.9,2019-11-11T16:07:50Z
2019-11-11T14:10:26Z,42.805,6.029,13.2964,4.59964,2469.9,2019-11-11T16:10:54Z
2019-11-11T14:13:29Z,42.805,6.029,13.2966,4.59963,2469.914,2019-11-11T16:13:57Z
2019-11-11T14:16:33Z,42.805,6.029,13.2962,4.59963,2469.9,2019-11-11T16:17:00Z
2019-11-11T14:19:36Z,42.805,6.029,13.2961,4.59966,2469.89,2019-11-11T16:20:03Z
2019-11-11T14:22:39Z,42.805,6.029,13.2963,4.59963,2469.9,2019-11-11T16:23:06Z
2019-11-11T14:25:42Z,42.805,6.029,13.2962,4.59963,2469.923,2019-11-11T16:26:10Z
2019-11-11T14:28:45Z,42.805,6.029,13.2967,4.59962,2469.937,2019-11-11T16:29:13Z
2019-11-11T14:31:49Z,42.805,6.029,13.2964,4.59966,2469.914,2019-11-11T16:32:16Z
2019-11-11T14:34:52Z,42.805,6.029,13.2963,4.59964,2469.923,2019-11-11T16:35:19Z
2019-11-11T14:37:55Z,42.805,6.029,13.2965,4.59963,2469.914,2019-11-11T16:38:23Z
2019-11-11T14:40:58Z,42.805,6.029,13.2967,4.59963,2469.923,2019-11-11T16:41:26Z
2019-11-11T14:44:02Z,42.805,6.029,13.2963,4.59963,2469.923,2019-11-11T16:44:29Z
2019-11-11T14:47:05Z,42.805,6.029,13.2964,4.59962,2469.947,2019-11-11T16:47:32Z
2019-11-11T14:50:08Z,42.805,6.029,13.2963,4.59963,2469.923,2019-11-11T16:50:36Z
2019-11-11T14:53:11Z,42.805,6.029,13.2958,4.59962,2469.937,2019-11-11T16:53:39Z
2019-11-11T14:56:15Z,42.805,6.029,13.2963,4.59962,2469.923,2019-11-11T16:56:42Z
2019-11-11T14:59:18Z,42.805,6.029,13.2963,4.59962,2469.947,2019-11-11T16:59:46Z
2019-11-11T15:02:21Z,42.805,6.029,13.2963,4.59962,2469.947,2019-11-11T17:02:49Z